www.pogodaiklimat.ru

Погода и климат >> Архив погоды >> Монголия >> Богд


ПОГОДА в Богде

  • Прогноз погоды в Богде
  • Монитор погоды в Богде

АРХИВ ПОГОДЫ в Богде

Время (UTC), дата Ветер
(напр.,м/с)
 
Видим.   Явления Облачность Т
(С)
Тd
(С)
f
(%)
Тe
(С)
Тes
(С)
Комфортность P
(гПа)
Po
(гПа)
Тmin
(С)
Tmax
(С)
R
(мм)
R24
(мм)
S
(см)
21 10.06 Ю 1 50 км ясно +12.2 +4.9 61 +12 +12 1008.1 840.7
00 11.06 ЮВ 2 50 км 3/0
[Ci]
+20.3 +6.3 40 +22 +25 комфорт 1004.9 842.3 +11.7
03 11.06 СЗ 2 50 км 5/1 1000 м
[Cu hum Cs]
+23.7 +5.1 30 +24 +36 комфорт 1003.5 842.8
06 11.06 С 4 50 км 8/3 1000 м
[Cu med, cong Cs]
+27.6 +0.4 17 +25 +33 комфорт 1000.0 841.8
09 11.06 СВ 2 50 км 8/3 1000 м
[Cu hum Cs]
+28.6 +2.0 18 +26 +32 жарко 998.4 840.9
12 11.06 С 2 50 км 6/3 1000 м
[Sc diur, vesp Ac cuf Ci]
+27.9 -1.1 15 +25 +26 комфорт 999.3 841.3 +29.0
15 11.06 С 8 н/о зарница 8/4 1000 м
[Cb calv Ac cuf]
+21.3 +3.5 31 +21 +21 комфорт 1006.2 843.9
18 11.06 штиль 0 50 км 4/0 2000 м
[Ac cuf]
+16.9 +3.2 40 +17 +17 1011.0 845.6
21 11.06 СЗ 1 50 км 3/0 2000 м
[Ac trans]
+12.8 +3.2 52 +13 +13 1014.3 846.2
00 12.06 С 3 50 км 4/1 1000 м
[Sc Ac und]
+17.5 +2.6 37 +18 +20 1013.6 848.1 +12.6
03 12.06 СВ 4 50 км 4/1 1000 м
[Cu hum Cs]
+21.3 +4.8 34 +22 +30 комфорт 1010.6 847.6
06 12.06 В 8 50 км 6/1 1000 м
[Cu hum Cs]
+24.8 +4.0 26 +24 +27 комфорт 1006.5 845.9
09 12.06 В 7 50 км 4/4 1000 м
[Cu Sc]
+26.0 +3.9 24 +25 +26 комфорт 1004.2 844.5
12 12.06 В 7 50 км 5/3 1000 м
[Cu med, cong Ac cuf Ci]
+23.9 +3.2 26 +23 +23 комфорт 1006.1 845.1 +26.5
15 12.06 В 5 н/о {метель} 8/1 1000 м
[Sc diur, vesp Ac cuf Cs]
+19.7 +2.6 32 +20 +20 1011.3 847.3
18 12.06 С 2 н/о {метель} 8/3 1000 м
[Sc Cs]
+14.7 +3.2 46 +15 +15 1014.3 847.2
21 12.06 штиль 0 н/о 8/8 1000 м
[Cu Sc]
+13.2 +4.6 56 +13 +13 1014.9 846.9
00 13.06 штиль 0 50 км 6/5 1000 м
[Cu Sc Ac und]
+18.0 +3.1 37 +18 +20 1012.2 847.2 +12.8
03 13.06 В 6 50 км 3/3 1000 м
[Cu hum Ci]
+24.7 +2.2 23 +24 +28 комфорт 1006.6 845.9
06 13.06 ЮВ 4 50 км 4/4 1000 м
[Cu med, cong]
+27.6 +4.0 22 +26 +34 жарко 1002.8 844.1
09 13.06 В 7 50 км 8/5 1000 м
[Cu med, cong Ci]
+28.5 +1.9 18 +26 +27 жарко 999.9 842.1
12 13.06 В 9 50 км 8/4 1000 м
[Sc Ac trans Ci]
+26.4 +0.9 19 +25 +25 комфорт 1000.5 841.6 +28.9
15 13.06 В 6 н/о 8/0 2000 м
[Ac As Cs]
+21.9 -0.2 23 +21 +21 комфорт 1004.1 842.4
18 13.06 В 8 н/о 8/4 1000 м
[Sc Ci]
+23.3 -3.1 17 +22 +22 комфорт 1002.3 841.6
21 13.06 В 3 50 км 8/4 1000 м
[Sc Ac und]
+21.5 -3.1 19 +21 +21 комфорт 1001.8 840.3
00 14.06 Ю 6 50 км 9/6 1000 м
[Cu Sc Ac und]
+22.8 -4.3 16 +21 +21 комфорт 1001.3 840.5 +20.4
03 14.06 Ю 5 50 км 9/6 600 м
[Sc Ac As]
+23.2 +0.3 22 +22 +24 комфорт 1000.3 839.9
06 14.06 З 1 50 км 10/8 600 м
[Cu Sc Ac und]
+22.5 +4.1 30 +23 +24 комфорт 1000.3 839.5
09 14.06 ЮЗ 8 20 км слаб. дождь 10/8 600 м
[Sc Ac As]
+16.4 +10.5 68 +15 +15 1004.9 840.3
12 14.06 ЮЗ 4 20 км осадки на расстоянии 9/8 600 м
[Sc Ac As]
+15.3 +11.5 78 +14 +14 1004.7 839.5 +23.4 2
15 14.06 З 4 50 км 5/5 1000 м
[Sc]
+14.3 +10.5 78 +13 +13 1004.9 839.2
18 14.06 З 6 50 км 1/0 2000 м
[Ac trans]
+15.1 +8.3 64 +14 +14 1003.3 838.3
21 14.06 З 8 50 км 3/3 1000 м
[Sc]
+13.9 +9.1 73 +11 +11 1004.1 838.3
00 15.06 ЮЗ 8 50 км 3/3 1000 м
[Sc]
+16.4 +7.3 55 +15 +15 1002.8 838.5 +13.2
03 15.06 З 8 50 км 4/4 1000 м
[Cu hum]
+19.8 +4.3 36 +20 +21 1001.1 838.8
06 15.06 З 9
{16}
50 км 8/8 1000 м
[Cu med, cong]
+21.7 +3.8 31 +22 +22 комфорт 998.2 837.4
09 15.06 З 9
{18}
50 км 8/8 1000 м
[Cu med, cong]
+19.4 +5.8 41 +19 +19 999.0 836.9
12 15.06 С 7
{18}
50 км {ливн. осадки} 8/4 1000 м
[Cb calv Ac cuf]
+18.3 +5.2 42 +18 +18 999.9 837.1 +22.7 0.5
15 15.06 штиль 0 50 км {гроза, ливн. осадки} 3/0 2000 м
[Ac cuf]
+14.1 +11.5 84 +14 +14 1004.0 838.3
18 15.06 ЮЗ 1 50 км {гроза, ливн. осадки} 4/0 2000 м
[Ac trans]
+12.1 +7.0 71 +12 +12 1004.5 837.7
21 15.06 З 4 50 км 3/0 2000 м
[Ac lent]
+14.1 +5.2 55 +13 +13 1002.7 837.2
00 16.06 З 1 50 км 4/3 1000 м
[Sc Ci]
+16.8 +5.4 47 +18 +21 1001.6 837.7 +11.6 1
03 16.06 ЮЗ 7 50 км 6/5 1000 м
[Cu hum Cc]
+21.1 +5.0 35 +22 +24 комфорт 998.8 837.6
06 16.06 З 6 50 км 8/8 1000 м
[Cu med, cong]
+22.6 +5.1 32 +23 +24 комфорт 997.2 837.0
09 16.06 З 6 50 км 8/8 1000 м
[Cu med, cong]
+23.4 +5.3 31 +24 +24 комфорт 995.8 836.2
12 16.06 СЗ 7 50 км 8/6 1000 м
[Cb calv Ac cuf]
+22.4 +5.4 33 +23 +23 комфорт 997.2 836.9 +24.8
15 16.06 С 3 50 км 5/3 1000 м
[Cu med, cong Ac cuf]
+16.6 +8.3 58 +16 +16 1003.6 839.3
18 16.06 штиль 0 50 км 3/0
[Ci]
+13.9 +8.7 71 +14 +14 1006.5 840.3
21 16.06 штиль 0 50 км ясно +10.5 +7.7 83 +10 +10 1009.6 841.1
00 17.06 ЮВ 1 50 км ясно +16.6 +8.3 58 +18 +22 1006.1 841.4 +9.3
03 17.06 С 2 50 км 3/3 1000 м
[Cu hum]
+22.1 +8.6 42 +23 +34 комфорт 1003.6 842.1
06 17.06 С 5 50 км 5/5 1000 м
[Cu med, cong]
+25.9 +4.4 25 +25 +30 комфорт 1000.3 841.2
09 17.06 В 1 50 км 6/4 1000 м
[Cu med, cong Ac cuf]
+26.7 +3.9 23 +25 +30 комфорт 999.0 840.5
12 17.06 Ю 3 50 км 5/4 1000 м
[Sc Ci]
+25.8 +3.7 24 +25 +25 комфорт 999.6 840.6 +27.8
15 17.06 Ю 2 50 км ясно +20.8 +4.4 34 +22 +22 комфорт 1004.0 841.8
18 17.06 Ю 2 50 км 1/0
[Ci]
+18.4 +4.6 40 +19 +19 1005.8 842.1

 

Местоположение метеостанции Богд (Монголия): широта 44.65 долгота 102.16 высота над уровнем моря 1646 м.

В архиве по умолчанию представлена погода в Богде за последнюю неделю. Архивные данные за месяц целиком и за предыдущие месяцы, начиная с января 2011 года, Вы можете получить, выбрав интересующий диапазон дат из раскрывающегося списка и нажав кнопку "Ввод!".


*Определитесь, кто Вы:
робот инопланетянин человек

Внимание! Время в таблицах - всемирное. Для получения местного времени необходимо прибавить поправку, которая равна 8 ч.

Смотрите также архив погоды в соседних городах и на ближайших метеорологических станциях:

Погода в Сайкхан-Ову (Монголия) (163 км)
Погода в Арвайхээре (Монголия) (187 км)
Погода в Баянхонгоре (Монголия) (201 км)
Погода в Даланзадгаде (Монголия) (216 км)
Погода в Шинэ Уса (Монголия) (250 км)
Погода в Цогт-Овоо (Монголия) (251 км)
Погода в Хужирте (Монголия) (255 км)
Погода в Амарбуйантайане (Монголия) (274 км)
Погода в Галууте (Монголия) (277 км)
Погода в Бат Олжий Вунд (Монголия) (288 км)

Пояснения к столбцам:

Ветер - указаны скорость ветра в м/с - средняя за 10 мин, порывы в срок и между сроками (в фигурных скобках) и направление, откуда дует ветер: С - северный, СВ - северо-восточный, В - восточный, ЮВ - юго-восточный, Ю - южный, ЮЗ - юго-западный, З - западный, СЗ - северо-западный.
Видимость - горизонтальная дальность видимости в метрах или километрах. При видимости от 1 до 10 км при отсутствии осадков обычно наблюдается дымка, при ухудшении видимости до 1 км и менее - туман. В сухую погоду видимость может ухудшаться дымом, пылью или мглою.
Явления - указаны атмосферные явления, наблюдавшиеся в срок или в последний час перед сроком; фигурными скобками обозначены явления, наблюдавшиеся между сроками (за 1-3 часа до срока); квадратными скобками обозначены град или гололедные отложения с указанием их диаметра в мм.
Облачность - указаны через наклонную черту общая и нижняя облачность в баллах и высота нижней границы облаков в метрах; квадратными скобками обозначены формы облаков: Ci - перистые, Cs - перисто-слоистые, Cc - перисто-кучевые, Ac - высококучевые, As - высокослоистые, Sc - слоисто-кучевые, Ns - слоисто-дождевые, Cu - кучевые, Cb - кучево-дождевые. Подробнее классификацию облаков см. в Атласе облаков (PDF).
T - Температура воздуха - температура, измеренная на высоте 2 м над землей.
Td - Температура точки росы - температура, при понижении до которой содержащийся в воздухе водяной пар достигнет насыщения.
f - Относительная влажность воздуха - влажноcть воздуха, измеренная на высоте 2 м над землей.
Te - Эффективная температура - температура, которую ощущает одетый по сезону человек в тени. Характеристика душности погоды. При расчете учитывается влияние влажности воздуха и скорости ветра на теплоощущения человека.
Tes - Эффективная температура на солнце - температура, которую ощущает человек, с поправкой на солнечный нагрев. Характеристика знойности погоды. Зависит от высоты солнца над горизонтом, облачности и скорости ветра. Ночью, в пасмурную погоду, а также при ветре 12 м/с и более поправка равна нулю.
P - Атмосферное давление - приведенное к уровню моря атмосферное давление.
Po - Атмосферное давление - измеренное на уровне метеостанции атмосферное давление.
Tmin - Минимальная температура - минимум температуры воздуха на высоте 2 м над землей.
Tmax - Максимальная температура - максимум температуры воздуха на высоте 2 м над землей.
R - Количество осадков - Количество выпавших осадков за период времени, мм. При наведении курсора мыши на число - период времени, за который выпало указанное количество осадков.
R24 - Количество осадков - Количество выпавших осадков за 24 часа, мм.
S - Снежный покров - Высота снежного покрова, см. При наведении курсора мыши на число - состояние снежного покрова и степень покрытия местности в баллах.